Location: Home
(42.5358°N, 72.7383°W)
Time: 01:37:01
(UTC-05:00)

Courier 1B Rocket - Pass Details

Date: 29 November 2021
Orbit: 920 x 1202 km, 28.3° (Epoch: 28 January)

Event Time Altitude Azimuth Distance (km) Brightness Sun altitude
Exits shadow 02:58:44 10° 136° (SE) 2,706 7.6 -43.6°
Drops below altitude 10° 02:58:50 10° 135° (SE) 2,732 7.6 -43.6°
Sets 03:02:11 0° 121° (ESE) 3,731 8.6 -43.0°
